Weather reports worldwide

Advertisment
Venezia/Tessera, Italy (16105): temperature & dewpoint: 12.10.2018 19:00:00 - 18.10.2018 19:00:00 (CEST)Venezia/Tessera, Italy (16105): wind speed: 12.10.2018 19:00:00 - 18.10.2018 19:00:00 (CEST)Venezia/Tessera, Italy (16105): wind direction: 12.10.2018 19:00:00 - 18.10.2018 19:00:00 (CEST)Venezia/Tessera, Italy (16105): reduced air pressure: 12.10.2018 19:00:00 - 18.10.2018 19:00:00 (CEST)Venezia/Tessera, Italy (16105): visibility: 12.10.2018 19:00:00 - 18.10.2018 19:00:00 (CEST)Venezia/Tessera, Italy (16105): precipitation: 12.10.2018 19:00:00 - 18.10.2018 19:00:00 (CEST)
Date & Time tt [°C] td [°C] ff [km/h] ff [kn] dd ppp [hPa] vv [km] rr [mm]
18.10.2018 19:00:00 19,0 16,0 4 2 SW - 10 -
18.10.2018 18:00:00 20,0 15,0 5 3 SSE - 10 -
18.10.2018 17:00:00 20,4 15,0 8 4 SSE 1015,1 10 0,0
18.10.2018 16:00:00 22,0 15,0 8 4 SE - 10 -
18.10.2018 15:00:00 23,0 13,0 5 3 ESE - 10 -
18.10.2018 14:00:00 22,0 14,0 8 4 ESE - 10 -
18.10.2018 13:00:00 22,0 13,0 9 5 N - 10 -
18.10.2018 12:00:00 21,0 13,0 9 5 N - 10 -
18.10.2018 11:00:00 19,5 14,2 9 5 N 1017,0 10 0,0
18.10.2018 10:00:00 17,0 14,0 8 4 NNW - 10 -
18.10.2018 09:00:00 14,0 12,0 4 2 - - 10 -
18.10.2018 08:00:00 14,0 12,3 5 3 NNW 1016,2 10 -
18.10.2018 07:00:00 14,0 13,0 5 3 W - 10 -
18.10.2018 06:00:00 15,0 13,0 13 7 N - 10 -
18.10.2018 05:00:00 15,0 12,9 5 3 NNW 1016,4 10 0,0
18.10.2018 04:00:00 - - - - - - - -
18.10.2018 03:00:00 16,0 14,0 8 4 NNW - 10 -
18.10.2018 02:00:00 16,2 13,9 9 5 NNW 1017,5 10 -
18.10.2018 01:00:00 16,0 14,0 9 5 WNW - 10 -
18.10.2018 00:00:00 16,0 14,0 11 6 WNW - 10 -
17.10.2018 23:00:00 17,5 14,5 8 4 WNW 1018,6 10 0,0
17.10.2018 22:00:00 18,0 15,0 8 4 NW - 10 -
17.10.2018 21:00:00 18,0 15,0 8 4 N - 10 -
17.10.2018 20:00:00 17,6 14,7 8 4 NNE 1018,2 10 -
17.10.2018 19:00:00 18,0 15,0 9 5 NE - 10 -
17.10.2018 18:00:00 19,0 15,0 8 4 NE - 10 -
17.10.2018 17:00:00 19,0 15,0 8 4 ENE - 10 -
17.10.2018 16:00:00 19,0 15,0 9 5 E - 10 -
17.10.2018 15:00:00 19,0 15,0 8 4 ENE - 10 -
17.10.2018 14:00:00 18,8 14,2 9 5 E 1019,2 10 -
17.10.2018 13:00:00 19,0 14,0 9 5 ENE - 10 -
17.10.2018 12:00:00 19,0 14,0 13 7 NNE - 10 -
17.10.2018 11:00:00 17,3 13,3 13 7 N 1019,9 10 0,0
17.10.2018 10:00:00 17,0 13,0 9 5 N - 10 -
17.10.2018 09:00:00 16,0 12,0 8 4 N - 10 -
17.10.2018 08:00:00 15,4 12,3 4 2 - 1019,6 10 -
17.10.2018 07:00:00 15,0 12,0 8 4 N - 10 -
17.10.2018 06:00:00 15,0 12,0 9 5 NNE - 10 -
17.10.2018 05:00:00 15,4 12,3 8 4 N 1019,4 10 0,0
17.10.2018 04:00:00 16,0 13,0 9 5 N - 10 -
17.10.2018 03:00:00 15,0 13,0 8 4 N - 10 -
17.10.2018 02:00:00 15,7 12,6 9 5 N 1020,4 10 -
17.10.2018 01:00:00 16,0 13,0 9 5 N - 10 -
17.10.2018 00:00:00 17,0 13,0 8 4 N - 10 -
16.10.2018 23:00:00 17,0 13,4 9 5 N 1021,0 10 0,0
16.10.2018 22:00:00 18,0 14,0 8 4 N - 10 -
16.10.2018 21:00:00 18,0 14,0 8 4 N - 10 -
16.10.2018 20:00:00 17,4 14,9 5 3 ENE 1021,0 10 -
16.10.2018 19:00:00 18,0 15,0 5 3 ESE - 10 -
16.10.2018 18:00:00 19,0 15,0 5 3 ESE - 10 -
16.10.2018 17:00:00 19,8 14,1 5 3 E 1020,9 10 0,0
16.10.2018 16:00:00 20,0 13,0 9 5 E - 10 -
16.10.2018 15:00:00 20,0 13,0 9 5 E - 10 -
16.10.2018 14:00:00 19,9 13,2 8 4 E 1020,9 10 -
16.10.2018 13:00:00 20,0 12,0 8 4 NE - 10 -
16.10.2018 12:00:00 18,0 12,0 8 4 N - 10 -
16.10.2018 11:00:00 17,3 11,4 11 6 N 1021,2 10 0,0
16.10.2018 10:00:00 15,0 11,0 9 5 N - 10 -
16.10.2018 09:00:00 14,0 11,0 8 4 NNW - 9 -
16.10.2018 08:00:00 13,7 10,8 9 5 N 1020,3 9 -
16.10.2018 07:00:00 13,0 11,0 9 5 NNE - 10 -
16.10.2018 06:00:00 13,0 11,0 4 2 NE - 10 -
16.10.2018 05:00:00 13,1 10,9 8 4 N 1019,8 9 0,0
16.10.2018 04:00:00 14,0 12,0 9 5 N - 9 -
16.10.2018 03:00:00 14,0 12,0 8 4 N - 9 -
16.10.2018 02:00:00 14,4 11,8 8 4 N 1020,6 10 -
16.10.2018 01:00:00 15,0 12,0 9 5 NNE - 10 -
16.10.2018 00:00:00 15,0 12,0 9 5 N - 10 -
15.10.2018 23:00:00 15,6 12,0 11 6 N 1020,6 10 0,0
15.10.2018 22:00:00 - - - - - - - -
15.10.2018 21:00:00 16,0 12,0 11 6 NNE - 10 -
15.10.2018 20:00:00 16,4 12,1 9 5 NNE 1020,5 10 -
15.10.2018 19:00:00 17,0 14,0 8 4 NE - 10 -
15.10.2018 18:00:00 19,0 14,0 11 6 NE - 10 -
15.10.2018 17:00:00 19,1 14,0 15 8 ENE 1019,6 10 0,0
15.10.2018 16:00:00 20,0 14,0 11 6 ENE - 10 -
15.10.2018 15:00:00 20,0 14,0 15 8 ENE - 10 -
15.10.2018 14:00:00 19,8 13,7 16 9 ENE 1019,7 10 -
15.10.2018 13:00:00 19,0 13,0 15 8 NE - 10 -
15.10.2018 12:00:00 18,0 13,0 13 7 ENE - 10 -
15.10.2018 11:00:00 18,4 11,8 13 7 NE 1019,7 10 0,0
15.10.2018 10:00:00 17,0 12,0 11 6 NE - 10 -
15.10.2018 09:00:00 14,0 11,0 9 5 N - 10 -
15.10.2018 08:00:00 14,1 10,4 8 4 NNW 1018,9 10 -
15.10.2018 07:00:00 14,0 10,0 9 5 NE - 10 -
15.10.2018 06:00:00 14,0 10,0 11 6 NNE - 10 -
15.10.2018 05:00:00 13,0 10,0 15 8 NE 1018,4 10 0,0
15.10.2018 04:00:00 15,0 11,0 11 6 NNE - 10 -
15.10.2018 03:00:00 15,0 11,0 9 5 N - 10 -
15.10.2018 02:00:00 15,2 11,6 11 6 N 1019,2 10 -
15.10.2018 01:00:00 16,0 13,0 11 6 N - 10 -
15.10.2018 00:00:00 16,0 13,0 11 6 NNE - 10 -
14.10.2018 23:00:00 16,9 13,9 9 5 N 1019,3 10 0,0
14.10.2018 22:00:00 17,0 15,0 4 2 NNE - 10 -
14.10.2018 21:00:00 18,0 15,0 2 1 - - 10 -
14.10.2018 20:00:00 17,7 15,5 4 2 ESE 1018,9 15 -
14.10.2018 19:00:00 18,0 16,0 8 4 SSE - 10 -
14.10.2018 18:00:00 20,0 15,0 5 3 SSE - 10 -
14.10.2018 17:00:00 20,7 13,6 8 4 SE 1018,7 10 0,0
14.10.2018 16:00:00 21,0 12,0 8 4 ESE - 10 -
14.10.2018 15:00:00 21,0 12,0 9 5 ESE - 10 -
14.10.2018 14:00:00 21,8 11,4 11 6 E 1020,1 10 -
14.10.2018 13:00:00 21,0 11,0 13 7 E - 10 -
14.10.2018 12:00:00 21,0 11,0 13 7 ENE - 10 -
14.10.2018 11:00:00 19,2 10,9 11 6 NE 1021,4 10 0,0
14.10.2018 10:00:00 17,0 10,0 11 6 NNE - 10 -
14.10.2018 09:00:00 14,0 10,0 9 5 N - 10 -
14.10.2018 08:00:00 13,5 9,2 13 7 NNE 1021,0 10 -
14.10.2018 07:00:00 12,0 9,0 15 8 NNE - 10 -
14.10.2018 06:00:00 13,0 9,0 13 7 NNE - 10 -
14.10.2018 05:00:00 13,1 9,5 13 7 NNE 1021,4 10 0,0
14.10.2018 04:00:00 - - - - - - - -
14.10.2018 03:00:00 14,0 10,0 11 6 N - 10 -
14.10.2018 02:00:00 13,9 9,7 13 7 N 1022,1 - -
14.10.2018 01:00:00 15,0 10,0 15 8 N - 10 -
14.10.2018 00:00:00 16,0 10,0 15 8 N - 10 -
13.10.2018 23:00:00 16,7 11,0 15 8 N 1022,7 10 0,0
13.10.2018 22:00:00 17,0 13,0 11 6 N - 10 -
13.10.2018 21:00:00 17,0 15,0 5 3 NE - 10 -
13.10.2018 20:00:00 18,4 12,3 2 1 - 1022,7 10 -
13.10.2018 19:00:00 - - - - - - - -
13.10.2018 18:00:00 21,0 15,0 5 3 SSE - 10 -
13.10.2018 17:00:00 21,6 16,0 9 5 SE 1022,6 10 0,0
13.10.2018 16:00:00 22,0 13,0 9 5 ESE - 10 -
13.10.2018 15:00:00 23,0 13,0 9 5 E - 10 -
13.10.2018 14:00:00 22,7 12,1 11 6 E 1023,7 10 -
13.10.2018 13:00:00 22,0 13,0 13 7 E - 10 -
13.10.2018 12:00:00 21,0 12,0 13 7 ENE - 10 -
13.10.2018 11:00:00 19,7 12,2 13 7 NE 1025,1 10 0,0
13.10.2018 10:00:00 17,0 12,0 13 7 NNE - 10 -
13.10.2018 09:00:00 15,0 11,0 11 6 N - 10 -
13.10.2018 08:00:00 14,2 11,6 11 6 N 1025,0 9 -
13.10.2018 07:00:00 14,0 11,0 11 6 N - 6 -
13.10.2018 06:00:00 13,0 11,0 11 6 N - 6 -
13.10.2018 05:00:00 13,3 11,5 11 6 N 1024,8 6 0,0
13.10.2018 04:00:00 14,0 12,0 11 6 N - 6 -
13.10.2018 03:00:00 14,0 13,0 11 6 N - 5 -
13.10.2018 02:00:00 14,8 12,8 9 5 NNE 1025,1 6 -
13.10.2018 01:00:00 16,0 14,0 9 5 NNE - 6 -
13.10.2018 00:00:00 17,0 14,0 8 4 - - 7 -
12.10.2018 23:00:00 18,6 14,2 8 4 W 1025,8 10 0,0
12.10.2018 22:00:00 19,0 13,0 5 3 WSW - 10 -
12.10.2018 21:00:00 18,0 15,0 8 4 SW - 10 -
12.10.2018 20:00:00 18,1 15,1 4 2 SSW 1025,3 10 -
12.10.2018 19:00:00 19,0 16,0 4 2 S - 9 -

tt = temperature
td = dewpoint
ff = wind speed
dd = wind direction
ppp = reduced air pressure
vv = visibility
rr = precipitation

Next stations